Hauptseite
METAR-TAF:

METAR-TAF

Flughäfen :

Turin, Italien

Bric della Croce

Breite: 45-02N, Länge: 007-44E, Höhe: 709 m

Beobachtung

Neuester Wetterbericht von vor 21 Minuten, um 22:55 UTC
Windstille
Temperatur 20°C
Luftfeuchtigkeit 35%
Luftdruck 1019 hPa
Sichtweite 10 km oder mehr
keine Wolken unter 1500 m und keine Kumulonimbus oder Gewitterwolken

METAR: LIMK 212255Z 00000KT CAVOK 20/04 Q1019 RMK SKC VAL NIL VIS MIN 9999

Zeit: 01:16 (23:16 UTC)


TAF: fehlend

Wetterbeobachtungen und Prognosen von mehr als 4000 Flughäfen (METAR und TAF Bericht).

Die verfügbaren Stationen werden durch gelbe und rote Markierungen auf der Karte dargestellt.

Führen Sie die Maus auf sie, um den Namen der Station zu sehen.

Darauf klicken, um die Beobachtung von Wetterbeobachtungen und Prognosen zu sehen.

Um die Karte zu ändern : klicken Sie auf den grünen Tasten mit einem schwarzen Kreuz Zum Vergrößern, auf den grünen Button mit einem Gedankenstrich zu verkleinern, oder auf die grünen Pfeile für benachbarte Karten.


METAR-TAF: